#timestamp,LO_Frequency,Hit,StdDev 
1563688835.9,286046999.5,N
1563688855.7,286046997.0,P
1563688875.6,286046999.5,N
1563688895.4,286046999.6,N
1563688915.2,286046999.3,N
1563688935.1,286047000.8,N
1563688936.0,286047000.8,N
1563688955.8,286047000.4,N
1563688975.6,286046999.1,N
1563688995.5,286046997.0,N
1563689015.3,286046996.8,N
1563689035.2,286046994.9,Y
1563689055.9,286046997.2,P
1563689075.7,286046997.3,N
1563689095.6,286046997.5,N
1563689115.4,286046997.6,Y
1563689135.3,286046999.2,P
1563689155.1,286046998.1,N
1563689156.0,286046998.1,P
1563689175.8,286047001.2,N
1563689195.7,286046999.0,N
1563689215.5,286047000.9,N
1563689235.3,286047001.2,N
1563689255.2,286046998.5,N
1563689275.0,286046998.4,N
1563689275.9,286046998.4,N
1563689295.8,286046996.9,N
1563689315.6,286046996.6,N
1563689335.4,286046996.7,N
1563689355.3,286046997.3,N
1563689375.1,286046997.6,N
1563689395.8,286046997.9,N
1563689415.7,286046997.6,N
1563689435.5,286046995.7,Y
1563689455.4,286046999.1,P
1563689475.2,286046998.3,P
1563689495.0,286046999.4,N
1563689495.9,286046999.4,N
1563689515.8,286046997.3,Y
1563689535.6,286046998.9,P
1563689555.4,286046998.2,P
1563689575.3,286046998.6,P
1563689595.1,286047000.8,N
1563689615.9,286046999.1,N
1563689635.7,286046998.7,N
1563689655.5,286046998.6,N
1563689675.4,286046998.1,N
1563689695.2,286046999.2,N
1563689715.0,286046999.1,N
1563689715.9,286046999.1,N
1563689735.8,286046997.0,Y
1563689755.6,286046999.3,P
1563689775.5,286046998.8,P
1563689795.3,286046996.8,P
1563689815.1,286046996.7,Y
1563689835.9,286046998.1,P
1563689855.7,286047001.1,P
1563689875.6,286047000.1,N
1563689895.4,286047001.6,N
1563689915.2,286047004.0,N
1563689935.1,286047006.0,N
1563689936.0,286047006.0,N
1563689955.8,286047005.6,N
1563689975.6,286047003.2,N
1563689995.5,286047001.3,N
1563690015.3,286047004.1,N
1563690035.2,286047004.3,N
1563690055.9,286047005.4,N
1563690075.7,286047005.8,N
1563690095.6,286047005.1,N
1563690115.4,286047005.8,N
1563690135.2,286047005.7,N
1563690155.1,286047004.6,N
1563690156.0,286047004.6,N
1563690175.8,286047005.2,N
1563690195.7,286047005.3,N
1563690215.5,286047007.3,Y
1563690235.3,286047002.5,P
1563690255.2,286047001.6,N
1563690275.0,286047004.4,P
1563690275.9,286047004.4,Y
1563690295.8,286046999.0,P
1563690315.6,286046999.6,N
1563690335.4,286046998.9,N
1563690355.3,286046998.4,N
1563690375.1,286046998.3,N
1563690395.8,286046999.0,N
1563690415.7,286046997.1,N
1563690435.5,286046995.5,N
1563690455.4,286046996.2,N
1563690475.2,286046996.8,N
1563690495.0,286046999.1,N
1563690495.9,286046999.1,N
1563690515.8,286046996.7,N
1563690535.6,286046997.3,N
1563690555.4,286046998.0,N
1563690575.3,286046995.6,N
1563690595.1,286046997.4,N
1563690615.9,286046995.5,N
1563690635.7,286046995.0,N
1563690655.5,286046995.3,N
1563690675.4,286046995.0,N
1563690695.2,286046997.6,N
1563690715.0,286046996.8,N
1563690715.9,286046996.8,N
1563690735.8,286046995.1,N
1563690755.6,286046995.6,N
1563690775.5,286046996.1,N
1563690795.3,286046995.3,N
1563690815.1,286046996.2,N
1563690835.9,286046994.5,Y
1563690855.7,286046999.5,P
1563690875.6,286046997.5,N
1563690895.4,286046995.2,P
1563690915.2,286046995.3,Y
1563690935.1,286046999.0,P
1563690936.0,286046999.0,N
1563690955.8,286046996.5,P
1563690975.7,286046999.4,N
1563690995.5,286046998.3,N
1563691015.3,286046998.2,N
1563691035.2,286046999.0,N
1563691055.0,286046998.4,N
1563691055.9,286046998.4,N
1563691075.7,286046998.8,N
1563691095.6,286046998.9,N
1563691115.4,286046999.3,N
1563691135.3,286046999.3,N
1563691155.1,286046996.6,Y
1563691156.0,286046996.6,P
1563691175.8,286046998.7,N
1563691195.7,286047001.1,N
1563691215.5,286046999.9,N
1563691235.4,286047000.9,N
1563691255.2,286047000.7,N
1563691275.0,286047000.2,N
1563691275.9,286047000.2,N
1563691295.8,286047002.1,N
1563691315.6,286047000.7,N
1563691335.5,286046998.7,N
1563691355.3,286046998.2,N
1563691375.1,286046998.5,N
1563691395.9,286046999.3,N
1563691415.7,286046999.3,N
1563691435.5,286046998.5,N
1563691455.4,286047001.2,N
1563691475.2,286047001.1,N
1563691495.0,286047000.5,N
1563691496.0,286047000.5,N
1563691515.8,286046998.5,N
1563691535.6,286046999.4,N
1563691555.5,286046998.4,N
1563691575.3,286047000.8,N
1563691595.1,286047000.6,N
1563691615.9,286047000.3,N
1563691635.7,286047000.4,N
1563691655.5,286047002.7,N
1563691675.4,286046999.9,N
1563691695.2,286047002.0,N
1563691715.1,286047002.6,N
1563691716.0,286047002.6,N
1563691735.8,286047000.1,N
1563691755.6,286046999.3,N
1563691775.5,286046996.6,N
1563691795.3,286046996.9,N
1563691815.2,286046998.3,N
1563691835.9,286046998.2,N
1563691855.7,286047002.6,N
1563691875.6,286047002.5,N
1563691895.4,286046998.2,N
1563691915.2,286047000.2,N
1563691935.1,286047002.7,N
1563691936.0,286047002.7,N
1563691955.8,286047000.9,N
1563691975.7,286046998.6,N
1563691995.5,286047000.7,N
1563692015.3,286047000.4,N
1563692035.2,286047000.0,N
1563692055.0,286047000.7,N
1563692055.9,286047000.7,N
1563692075.7,286047002.8,N
1563692095.6,286047002.1,N
1563692145.5,286047001.4,E
1563692155.4,286047002.2,N
1563692175.2,286047002.3,P
1563692195.0,286047000.3,P
1563692196.0,286047000.3,N
1563692215.8,286046998.3,N
1563692235.6,286046999.7,N
1563692255.5,286047002.5,N
1563692275.3,286047001.5,N
1563692295.1,286046999.7,N
1563692315.9,286047002.4,N
1563692335.7,286047002.1,N
1563692355.5,286047000.2,N
1563692375.4,286047002.8,N
1563692395.2,286047002.0,N
